GFSCGP_925_temp_318.txt.gz
Temp
16 16 17 17 19 21 21 21 21 22 20 22 23 24 21 19 21 22 22 19 18 19 21 20 19 19 19 18 18 18 17 17 17 16 17 17 16 16 16 16 17 16 16 15
14 16 18 19 18 18 19 20 21 18 18 22 22 23 21 17 21 22 21 20 18 18 20 19 19 19 18 18 18 18 18 18 17 17 18 17 17 16 17 17 17 15 15 15
15 17 17 17 17 18 20 21 19 21 19 19 21 23 20 19 19 21 22 21 21 19 19 19 18 18 18 18 18 18 18 18 16 17 18 17 16 16 16 16 16 15 15 15
16 16 15 16 17 19 18 19 19 18 20 21 21 23 22 22 19 19 20 20 21 21 20 20 19 18 18 18 18 18 18 18 17 17 17 17 17 17 16 17 16 14 14 14
13 15 15 15 17 18 19 18 19 19 21 20 20 21 25 21 21 21 21 21 21 21 21 20 19 19 18 18 17 17 18 17 17 16 17 17 18 18 17 17 16 15 14 14
15 17 17 17 17 18 16 18 18 17 19 18 22 22 25 22 23 23 22 22 21 21 21 21 20 19 18 18 17 17 17 17 17 16 17 17 17 17 17 15 15 15 14 13
14 15 15 17 16 16 18 20 17 17 17 19 18 20 24 24 25 26 24 23 23 21 21 20 20 19 19 17 17 17 17 17 17 16 16 16 17 17 17 16 15 15 13 13
12 11 15 17 18 17 18 21 19 17 18 19 16 18 22 25 23 22 23 24 23 21 21 20 20 19 18 17 17 17 17 17 17 16 15 16 17 17 17 16 15 15 14 13
12 13 16 17 19 19 18 18 20 17 15 20 20 19 20 20 18 18 19 19 20 21 21 20 20 18 18 17 16 17 17 17 17 16 16 15 16 16 16 16 15 15 14 13
12 12 15 17 18 18 19 20 18 18 17 19 17 20 22 20 21 19 19 19 20 20 20 19 19 18 17 17 16 16 17 17 16 16 16 16 15 15 15 16 15 14 13 13
10 14 13 16 17 18 17 18 19 20 18 19 20 21 21 23 22 22 21 21 21 19 18 18 18 18 17 16 16 15 15 16 16 16 16 16 16 15 15 15 15 14 13 12
11 14 14 15 16 17 19 19 20 19 17 16 18 22 18 19 18 19 21 20 18 17 16 16 16 16 15 15 15 15 14 14 15 15 16 15 15 15 15 14 14 13 12 12
7 13 12 11 13 16 17 18 20 20 19 19 18 22 18 17 17 18 18 18 16 16 14 14 13 13 14 13 14 14 13 13 14 14 14 14 15 14 14 13 13 14 14 13
7 13 16 16 16 17 16 18 19 19 19 19 19 21 21 21 20 19 18 16 16 14 13 13 13 13 13 13 13 13 12 12 13 13 13 13 13 13 13 13 13 12 12 12
6 11 13 13 14 16 17 17 18 17 19 19 20 18 20 21 23 19 18 14 14 14 13 13 13 13 12 12 12 11 11 11 11 12 13 13 12 12 12 12 11 11 10 9
5 10 12 13 13 15 16 17 17 17 18 19 19 19 18 19 18 19 18 15 15 15 14 13 12 12 12 11 10 10 10 9 10 11 11 11 11 11 11 10 9 8 7 7
4 5 10 12 12 13 13 14 16 17 9 8 16 12 7 10 8 9 9 12 14 13 14 14 13 12 11 10 10 10 9 8 8 8 9 9 9 8 7 7 6 5 4 4
4 5 7 11 11 13 8 6 8 6 2 2 4 5 4 4 4 5 6 5 6 6 8 10 12 12 11 10 9 9 8 7 7 6 7 6 6 6 5 4 4 3 2 2
4 5 6 10 13 11 8 2 1 2 1 0 0 2 2 2 6 10 5 3 3 4 5 7 9 10 9 8 7 7 7 6 6 5 5 5 5 4 3 3 2 2 2 1
5 5 6 7 10 12 2 -1 -1 0 6 -0 -1 -0 -1 1 8 15 3 2 3 3 4 5 7 7 7 6 6 6 6 5 5 4 4 3 4 4 2 2 1 1 1 1
4 3 6 7 8 3 -2 -1 -1 6 2 -2 -2 -2 -2 -2 -1 0 2 2 2 2 3 3 6 6 6 5 5 6 5 5 4 3 3 2 2 2 1 0 -0 -0 -1 -1
1 1 4 4 7 8 -2 0 2 -4 -4 -4 -3 -4 -4 -3 -2 -1 1 1 2 2 2 3 5 5 4 4 4 5 4 4 3 3 2 1 0 0 -0 -1 -1 -1 -2 -2
1 -3 -1 -1 2 -2 -2 -3 -5 -5 -6 -5 -5 -5 -4 -4 -3 -2 -0 0 1 1 1 2 3 4 3 3 4 3 3 1 1 0 -0 -1 -1 -1 -1 -1 -2 -2 -2 -2
-4 -7 -4 -4 -4 -4 -3 -4 -4 -5 -6 -6 -6 -5 -5 -5 -4 -3 -1 -0 0 -0 0 1 1 2 2 2 2 3 1 1 0 -1 -1 -1 -2 -2 -2 -2 -2 -2 -2 -2
-4 -6 -5 -5 -5 -4 -4 -3 -5 -7 -7 -7 -7 -7 -6 -5 -4 -3 -2 -2 -1 -1 -1 -0 0 1 1 1 1 0 0 0 -1 -1 -2 -2 -2 -2 -2 -2 -2 -2 -2 -1
-6 -5 -3 -1 -6 -8 -6 -6 -8 -9 -8 -8 -8 -8 -7 -6 -5 -4 -3 -3 -2 -2 -1 -1 -1 -1 -1 -0 -0 -0 -0 -1 -1 -2 -2 -2 -3 -3 -3 -3 -3 -2 -2 -2

GFSCGP_925_temp_321.txt.gz
Temp
15 15 17 17 20 22 22 22 23 24 24 23 24 26 24 24 25 26 26 25 24 24 24 23 23 22 21 20 18 16 16 17 18 18 17 17 16 17 17 18 17 17 17 16
14 16 19 19 20 21 22 22 23 22 21 23 25 26 25 24 25 26 26 25 24 24 23 23 22 22 21 20 19 19 18 19 19 18 17 16 16 17 17 16 17 17 17 16
14 18 20 19 18 19 21 22 22 21 20 22 25 24 23 22 24 26 26 25 23 22 23 23 22 22 21 20 20 20 20 19 19 18 17 16 16 16 15 16 17 16 17 16
17 19 19 18 17 20 20 22 23 21 21 21 24 22 24 23 22 24 24 24 23 21 22 23 22 21 21 20 20 20 20 19 19 18 16 17 16 16 16 16 17 16 16 15
14 18 17 18 17 20 20 21 21 21 21 23 21 22 26 25 22 22 23 24 24 23 22 22 22 21 21 20 20 19 19 19 19 17 17 17 17 17 17 16 16 16 16 15
15 19 18 18 19 19 19 20 20 21 21 18 23 23 25 26 25 24 23 23 24 24 23 23 22 21 21 20 19 19 19 19 19 18 17 18 18 18 18 16 14 15 15 15
16 16 18 19 18 18 19 20 17 17 17 19 23 22 25 28 27 27 25 24 24 24 24 23 23 22 21 20 19 19 19 19 19 18 18 18 18 18 18 17 15 14 14 14
13 13 16 19 18 18 19 21 19 17 18 20 19 20 24 27 27 28 28 26 25 24 24 24 23 22 21 20 19 18 18 19 18 18 18 18 18 18 18 17 16 15 15 15
13 14 18 18 20 19 18 20 23 20 20 21 21 22 23 25 23 23 25 25 25 24 24 23 23 22 21 20 19 18 18 19 19 18 18 18 18 17 17 17 17 16 15 15
11 13 17 18 19 19 20 21 19 20 18 19 22 22 22 23 23 22 22 22 22 23 23 23 23 22 21 20 19 18 18 18 18 18 18 18 17 16 16 17 16 16 16 15
9 15 13 17 17 18 18 19 20 21 21 19 20 21 24 24 24 23 23 22 22 22 22 22 22 22 21 20 19 18 18 18 18 18 18 18 17 16 15 16 16 16 16 15
8 12 14 15 18 20 20 20 20 20 20 19 19 22 21 21 22 23 25 23 23 22 21 20 20 21 21 20 20 18 18 18 18 18 18 18 17 17 15 15 15 15 15 14
7 13 13 12 15 16 18 20 21 22 22 20 19 22 20 19 20 20 21 20 19 19 18 18 18 18 19 19 19 18 17 17 18 18 18 17 17 17 16 16 16 16 15 14
7 10 16 17 17 18 17 19 20 21 20 20 21 22 21 21 22 21 20 19 19 17 17 17 16 17 17 17 17 17 17 15 15 16 17 17 17 17 16 16 15 15 14 13
6 11 13 16 17 19 18 18 19 19 20 20 21 21 23 13 16 13 13 17 17 17 16 16 15 16 16 16 15 16 16 15 14 14 15 16 16 16 16 15 14 14 13 13
6 9 10 13 16 16 17 18 18 19 19 20 21 20 10 12 10 9 10 10 10 10 10 11 13 15 14 14 14 14 14 13 12 13 13 13 14 14 14 13 12 11 11 11
5 6 10 13 14 15 14 6 9 16 7 8 16 12 7 7 6 6 7 6 6 7 7 8 9 11 12 14 13 12 12 12 10 11 11 12 13 12 12 11 10 10 9 8
4 6 8 12 12 13 6 5 6 5 3 4 5 5 4 4 3 4 5 3 4 4 5 6 6 7 7 10 12 11 11 11 9 8 9 10 10 10 9 8 7 7 6 6
5 5 8 10 13 8 6 2 1 2 2 2 1 2 2 2 4 6 4 2 3 3 4 4 4 4 6 8 10 10 10 10 8 7 7 7 7 7 6 5 5 4 3 3
7 5 6 9 10 11 3 1 1 1 6 0 -0 0 -0 1 6 8 1 1 2 2 2 3 3 4 6 7 8 8 9 8 9 7 6 6 6 6 4 4 3 3 2 1
5 5 6 8 9 3 -1 -1 0 5 2 -1 -1 -1 -1 -2 -1 0 0 1 1 1 2 2 2 3 5 6 6 7 7 7 7 6 5 5 5 4 4 3 2 2 1 1
2 2 6 6 7 6 -1 1 2 -3 -2 -2 -3 -3 -3 -2 -2 -1 -1 -0 0 1 1 1 2 2 3 5 5 5 6 7 6 4 4 4 4 3 2 2 1 0 0 -0
3 -0 1 0 2 -0 -0 -2 -3 -3 -4 -4 -4 -4 -4 -4 -3 -3 -2 -1 -1 -0 0 0 1 1 2 3 4 4 5 5 4 3 2 1 1 1 1 0 -1 -1 -1 -1
-2 -5 -2 -2 -1 -1 -1 -2 -2 -3 -5 -5 -5 -5 -5 -5 -4 -4 -3 -2 -2 -1 -1 -0 -0 0 1 2 3 3 4 2 2 1 0 -0 -0 -1 -1 -1 -1 -2 -2 -2
-0 -3 -0 -1 -2 -2 -2 -2 -3 -5 -6 -6 -6 -6 -6 -6 -5 -5 -4 -3 -3 -2 -2 -1 -0 -0 0 1 1 2 2 1 0 -0 -1 -1 -1 -2 -2 -2 -2 -2 -2 -2
-2 0 1 4 -3 -4 -2 -4 -6 -7 -7 -8 -8 -8 -7 -7 -6 -6 -5 -4 -4 -3 -3 -2 -2 -1 -1 -0 -0 0 1 0 -0 -1 -1 -2 -2 -2 -2 -2 -3 -3 -2 -2

GFSCGP_925_temp_324.txt.gz
Temp
15 15 15 17 18 20 19 20 20 20 21 20 20 21 21 22 22 22 22 20 20 20 22 22 22 21 18 18 17 16 17 17 17 17 18 18 17 17 18 18 18 17 17 17
13 14 17 18 18 19 20 19 20 21 21 20 20 21 21 22 22 23 22 21 21 21 21 22 22 22 19 17 17 16 16 17 17 18 17 17 17 17 18 17 18 17 17 16
13 15 18 18 17 18 19 20 20 18 20 20 21 21 21 22 22 23 22 22 21 21 21 21 21 21 21 19 18 17 16 16 17 18 17 16 16 16 17 17 17 17 17 16
15 17 18 17 17 18 18 20 21 18 17 16 20 17 19 20 20 21 22 22 21 21 21 21 21 20 20 20 19 18 17 17 18 18 17 16 16 15 16 18 17 17 16 16
13 16 17 16 16 18 19 20 19 18 18 20 20 18 20 20 19 20 21 20 20 19 20 20 20 21 20 20 19 19 19 18 19 18 17 16 16 17 17 17 17 17 16 16
14 17 18 18 17 18 19 18 18 18 17 13 18 18 19 20 20 20 21 21 20 19 19 19 21 21 20 20 20 20 20 19 19 18 17 16 16 17 17 17 17 17 16 16
16 16 18 17 15 15 18 18 13 14 12 14 18 18 20 22 21 21 21 21 21 20 19 19 19 20 20 20 20 19 19 19 19 18 17 16 17 18 17 17 16 16 16 15
13 13 16 17 15 14 18 18 13 12 13 14 18 16 19 23 22 23 22 21 21 19 20 20 19 19 20 19 19 18 18 18 18 18 17 17 17 18 18 17 17 16 16 16
14 13 16 18 17 17 16 17 19 18 19 15 16 20 21 21 21 23 22 21 20 20 19 20 20 20 19 19 19 18 18 18 18 18 17 17 18 18 18 18 17 16 16 16
10 13 15 17 18 18 18 19 17 17 15 17 16 18 18 20 20 20 21 21 20 19 19 18 19 20 20 19 19 18 18 18 18 18 18 17 17 18 18 18 17 17 17 16
9 13 13 17 16 16 16 17 18 18 16 14 15 16 20 20 20 18 18 18 19 19 18 17 17 20 20 20 19 18 18 18 18 18 18 17 17 17 17 17 17 16 16 15
7 10 12 14 16 17 18 18 18 15 17 15 15 17 17 16 16 17 17 17 18 19 17 17 17 20 20 20 19 18 18 18 18 18 18 18 17 17 17 16 16 16 16 16
7 12 12 12 14 15 16 17 18 19 18 17 14 16 15 16 12 13 14 14 13 14 13 12 12 14 16 18 19 18 18 17 18 18 18 17 17 16 16 16 16 16 16 16
7 9 12 13 15 16 15 17 17 18 16 17 18 16 11 11 9 10 9 10 10 9 10 10 11 12 15 16 16 18 18 18 17 18 17 17 17 17 16 15 15 15 16 15
6 10 10 12 15 16 16 16 17 17 18 16 18 14 10 8 8 7 7 8 7 7 7 7 7 8 10 12 14 15 16 16 17 17 17 17 17 17 16 15 15 15 15 15
5 9 9 11 15 17 15 13 16 17 17 18 18 8 6 6 6 5 5 5 5 5 5 5 5 6 6 7 7 11 13 14 15 15 15 15 16 16 16 16 15 15 15 14
4 5 8 11 11 13 11 5 7 9 5 6 11 4 4 3 3 3 3 2 3 3 3 3 3 4 4 4 5 7 11 12 13 13 14 14 14 14 15 15 15 15 14 14
3 5 6 10 10 12 4 3 5 3 2 2 2 2 2 1 2 2 1 1 1 1 2 2 2 2 3 3 5 7 9 11 11 11 11 12 12 13 13 13 13 12 11 11
4 4 6 9 10 5 5 1 0 1 1 0 -0 1 0 0 2 1 0 0 0 1 1 2 2 2 2 3 5 6 7 9 9 10 9 10 10 11 11 11 10 10 8 8
7 4 4 7 9 9 2 -1 0 1 4 -1 -1 -1 -1 -0 5 3 -1 -1 -0 -0 0 1 1 1 2 2 3 4 6 7 8 9 8 8 8 8 8 8 8 7 6 5
2 0 5 6 5 2 -1 -1 0 4 1 -2 -2 -2 -3 -3 -2 -2 -2 -1 -2 -1 -1 -0 0 1 1 1 2 3 4 5 7 8 7 7 6 6 6 6 5 4 3 3
0 2 3 3 5 4 -0 -0 1 -3 -2 -3 -4 -4 -4 -4 -3 -3 -3 -3 -2 -2 -2 -1 -1 -1 -0 0 1 2 3 4 5 6 6 6 5 4 4 4 3 3 2 1
-2 -3 -0 1 2 -0 -2 -2 -4 -3 -4 -4 -5 -5 -5 -5 -5 -5 -4 -4 -4 -3 -3 -2 -2 -1 -1 -0 0 1 2 2 4 5 5 4 4 3 3 2 2 1 1 0
-6 -8 -7 -4 -3 -2 -2 -3 -3 -4 -5 -5 -5 -6 -6 -6 -6 -6 -5 -5 -5 -4 -4 -4 -3 -2 -2 -1 -1 -0 0 1 3 4 3 3 2 2 2 2 1 0 0 -0
-5 -6 -5 -6 -7 -5 -5 -5 -5 -6 -6 -6 -7 -7 -7 -7 -7 -7 -7 -6 -6 -6 -5 -5 -4 -3 -3 -2 -2 -2 -1 0 1 2 1 1 0 0 -0 0 0 -0 -0 0
-7 -5 -4 -2 -4 -7 -6 -8 -8 -9 -8 -9 -9 -9 -9 -9 -9 -8 -8 -8 -7 -7 -6 -5 -5 -4 -4 -4 -4 -3 -2 -1 0 0 -0 -1 -1 -1 -1 -1 -1 -1 -1 -1

GFSCGP_925_temp_327.txt.gz
Temp
13 15 15 14 16 16 17 17 17 18 19 19 18 20 19 18 19 16 16 17 18 18 19 18 18 18 18 18 17 18 17 17 17 17 18 18 18 18 18 18 17 17 17 17
14 15 15 16 17 17 17 17 18 18 19 19 18 19 19 19 19 18 17 16 17 18 18 19 18 18 17 18 17 18 17 17 17 17 17 18 18 18 18 18 18 17 17 16
14 15 16 17 16 17 17 18 18 18 18 19 18 19 19 20 20 19 18 18 18 18 18 18 19 18 17 16 17 18 18 17 17 17 17 17 17 17 17 17 18 18 17 16
14 16 17 16 16 16 17 18 18 17 16 16 18 15 17 18 19 19 19 18 18 18 19 19 19 17 16 16 17 17 18 17 17 17 17 17 16 16 16 17 17 17 17 17
12 15 16 15 15 17 18 18 19 17 16 16 18 15 16 18 18 18 18 19 19 19 19 18 19 17 17 16 16 17 18 17 17 16 17 17 16 17 17 17 17 17 17 16
13 16 16 16 15 17 18 17 16 15 14 14 16 15 17 18 20 19 18 19 19 18 19 18 18 18 17 17 16 17 18 17 17 16 17 17 17 17 16 16 17 17 17 16
15 15 16 16 15 15 18 16 13 14 12 14 15 17 17 18 19 21 19 17 18 18 18 18 17 17 17 17 17 18 18 17 16 17 17 17 17 17 16 17 17 17 17 15
12 11 15 16 15 14 16 15 12 12 12 14 15 15 19 19 19 19 22 19 18 18 18 16 16 18 17 17 18 18 17 17 17 16 16 17 17 17 17 17 17 17 17 16
13 12 14 16 15 17 17 16 17 15 15 15 14 17 20 19 20 18 18 18 16 17 17 18 17 18 18 17 17 18 18 17 17 17 17 17 17 17 17 17 17 17 17 16
10 12 14 16 17 18 17 18 16 14 15 16 13 16 17 19 20 19 17 16 16 16 16 17 18 17 18 18 17 17 17 17 18 17 17 17 17 17 17 17 17 17 17 16
8 12 13 16 15 14 15 16 16 16 13 13 13 15 14 14 16 18 16 15 15 16 15 15 15 18 18 18 18 18 17 17 17 17 17 16 16 17 17 17 17 17 17 17
8 10 12 14 15 15 16 16 15 13 16 14 13 13 10 10 10 12 11 10 9 9 9 10 11 13 15 17 18 18 17 17 17 17 17 17 16 16 16 17 17 17 17 17
7 11 12 11 13 14 14 16 16 16 15 16 13 13 10 8 8 8 8 7 7 6 6 6 7 7 7 9 13 15 16 17 17 17 17 16 16 16 16 16 17 17 16 17
7 10 11 11 13 14 14 15 16 16 14 16 15 12 9 7 6 6 6 5 5 5 4 5 4 5 5 5 6 8 11 14 17 17 17 17 16 16 16 16 16 16 16 16
6 9 10 10 11 14 14 15 15 15 16 16 15 10 6 5 5 4 4 4 4 3 3 3 3 3 3 4 4 6 8 11 13 14 16 16 16 16 16 16 16 16 16 15
4 8 8 9 12 13 9 8 12 13 13 12 9 6 3 3 4 3 2 2 2 2 2 2 2 2 2 3 3 4 6 8 10 12 13 15 15 15 15 15 15 15 15 15
2 4 7 10 10 11 10 3 4 6 3 4 10 3 2 2 2 1 1 1 1 1 1 1 1 2 1 2 2 3 4 6 8 10 12 14 14 14 14 14 14 14 14 13
2 2 6 9 10 12 3 2 3 2 1 1 1 1 0 0 0 -0 -1 -1 -0 -0 -0 0 0 1 1 1 2 2 3 5 6 8 10 11 12 13 13 12 13 13 13 13
3 3 4 6 6 5 4 1 1 1 2 -1 -1 -1 -1 -1 -0 -1 -1 -1 -1 -1 -1 -1 -1 -0 0 0 0 1 2 3 5 7 9 9 9 9 10 10 11 12 11 11
6 4 4 6 7 7 2 -1 -0 1 5 -2 -2 -2 -3 -1 1 1 -2 -2 -2 -2 -2 -2 -1 -1 -1 -1 -0 0 1 2 3 4 5 8 8 8 8 8 9 11 10 9
1 0 4 5 4 1 0 -1 -0 5 3 -2 -3 -3 -3 -3 -2 -3 -3 -3 -3 -3 -3 -2 -2 -2 -2 -1 -1 -1 -0 1 1 2 4 6 7 7 7 7 7 7 7 7
-2 -0 2 -1 4 5 -1 -1 2 -2 -3 -3 -4 -5 -5 -4 -4 -4 -4 -4 -4 -4 -4 -4 -3 -3 -3 -2 -1 -1 -1 -1 -0 1 3 4 6 6 6 5 5 5 5 4
-3 -3 -2 1 2 -1 -3 -4 -4 -4 -5 -5 -5 -5 -6 -6 -6 -6 -6 -5 -6 -6 -5 -5 -5 -4 -3 -3 -2 -2 -2 -2 -1 -0 2 3 4 4 5 4 3 3 3 2
-7 -12 -7 -5 -5 -4 -3 -5 -4 -5 -6 -6 -6 -7 -7 -7 -7 -7 -7 -7 -7 -7 -7 -6 -6 -5 -5 -4 -3 -3 -3 -3 -2 -1 0 2 3 3 3 3 2 2 1 1
-5 -7 -7 -8 -10 -7 -7 -6 -6 -7 -7 -7 -8 -8 -8 -8 -8 -9 -9 -9 -8 -8 -8 -8 -7 -7 -6 -5 -5 -5 -5 -4 -3 -3 -1 -0 1 1 1 1 1 1 1 2
-8 -5 -3 -1 -4 -6 -8 -9 -9 -9 -9 -9 -10 -10 -9 -10 -10 -10 -10 -10 -10 -10 -8 -9 -9 -8 -7 -7 -6 -6 -5 -5 -5 -4 -2 -1 -1 -0 0 0 0 0 1 1

GFSCGP_925_temp_330.txt.gz
Temp
12 13 14 15 17 18 16 16 17 17 17 19 18 16 17 16 16 17 16 16 18 19 19 20 19 18 18 18 18 18 18 18 18 18 18 18 18 18 18 17 17 17 16 16
13 13 14 16 15 17 17 15 17 17 18 18 18 18 16 17 16 17 16 16 17 19 19 18 17 18 18 18 18 18 18 18 18 18 17 18 18 18 18 18 17 17 16 16
13 13 15 16 15 16 15 17 16 17 18 17 18 18 18 18 17 16 16 16 17 18 19 18 17 16 17 18 18 18 17 17 17 17 17 18 18 17 17 17 17 17 17 16
14 15 16 16 15 17 16 16 17 17 18 16 18 15 17 17 17 16 16 15 16 17 18 17 17 16 16 17 18 18 18 17 17 18 18 18 17 16 17 17 17 17 17 17
13 15 15 15 15 16 16 16 17 17 16 16 17 15 16 16 17 16 16 16 16 16 17 17 17 17 17 16 17 17 18 18 17 17 17 18 17 17 17 17 17 17 17 17
13 15 15 15 14 16 15 16 16 14 15 15 15 16 16 16 19 17 16 17 17 17 17 17 18 17 16 16 16 16 17 17 18 17 17 17 16 17 17 17 17 17 17 17
13 13 15 16 16 16 16 18 13 14 13 15 15 16 16 17 19 19 18 17 17 17 17 17 16 16 16 15 15 16 16 17 18 17 17 17 17 17 17 17 17 17 16 16
12 12 15 16 15 15 16 14 15 13 12 14 14 15 17 17 18 19 19 18 17 17 18 17 16 16 16 15 15 15 15 16 17 17 16 16 16 17 17 17 17 17 16 17
11 13 14 16 15 16 17 15 15 12 14 15 14 17 19 17 17 17 18 16 16 17 17 17 17 17 15 15 15 15 15 15 16 16 15 15 15 16 16 16 17 17 17 17
10 11 13 16 17 17 17 17 15 13 13 15 14 16 16 12 11 14 16 16 15 15 15 15 15 17 16 16 16 16 16 16 16 16 15 15 16 16 16 17 17 17 17 17
8 12 12 15 14 14 16 16 15 14 12 12 13 14 11 9 8 10 8 8 8 8 8 8 9 13 15 16 16 16 16 17 17 16 16 16 16 16 16 16 17 17 17 17
7 10 12 13 13 14 15 15 14 13 15 12 12 12 8 7 7 7 6 6 6 6 5 5 6 6 7 10 13 14 15 17 17 17 17 16 16 15 15 16 17 17 16 17
7 10 11 12 14 15 14 15 15 14 13 14 12 12 7 6 6 5 5 4 4 4 4 4 4 4 4 5 6 9 11 12 14 16 17 16 16 15 15 16 16 16 16 16
7 10 11 12 12 13 14 15 15 15 13 14 13 9 8 6 5 4 3 3 3 3 3 3 2 2 2 3 3 5 7 9 10 12 14 15 16 16 16 16 16 16 16 16
5 9 10 10 9 11 13 14 14 14 15 15 13 10 6 4 4 3 3 3 2 2 2 2 2 2 2 2 2 3 4 6 8 10 11 13 15 15 16 15 16 16 16 15
3 7 8 10 10 10 10 9 14 13 11 11 9 6 3 2 3 2 1 1 1 1 1 1 1 1 1 1 1 1 2 4 5 8 10 11 12 14 15 15 15 15 15 15
-1 4 5 8 9 10 10 5 5 5 2 5 10 5 2 2 2 -0 -0 -0 -0 -0 -0 -0 -0 -0 -0 -0 0 0 1 3 4 6 8 10 11 12 12 13 13 13 13 14
1 0 6 5 8 11 5 2 2 2 1 1 1 0 0 -0 0 -1 -2 -2 -1 -1 -1 -1 -1 -1 -1 -1 -0 -0 1 1 2 4 5 7 8 9 9 10 11 11 12 12
3 2 3 6 7 4 3 2 2 3 3 -1 -0 -1 -1 -1 -1 -2 -2 -2 -2 -2 -2 -2 -2 -2 -2 -2 -1 -1 -0 0 1 1 2 4 6 8 8 9 9 9 9 11
4 3 2 4 7 7 3 -0 0 0 6 -1 -1 -2 -2 -1 1 -0 -3 -3 -3 -3 -3 -3 -3 -3 -2 -2 -2 -2 -1 -1 -0 -0 0 2 4 6 7 8 8 8 7 9
-1 0 2 0 4 3 -1 -1 -0 6 4 -2 -2 -3 -3 -1 -3 -3 -4 -4 -4 -4 -4 -4 -4 -4 -4 -4 -3 -2 -2 -2 -2 -2 -1 1 3 4 6 6 7 7 6 6
-2 -1 1 1 3 5 -1 -1 3 -1 -3 -3 -4 -4 -4 -4 -4 -4 -4 -4 -5 -5 -6 -5 -5 -5 -5 -4 -4 -3 -3 -3 -3 -3 -2 -1 1 3 4 5 5 5 5 5
-3 -3 -1 1 3 -2 -3 -3 -4 -4 -5 -4 -5 -5 -5 -6 -5 -6 -6 -6 -7 -7 -7 -7 -7 -6 -6 -5 -5 -4 -4 -4 -4 -4 -3 -2 -1 1 2 3 4 3 3 3
-7 -13 -7 -4 -5 -4 -3 -5 -4 -4 -5 -5 -6 -7 -7 -7 -7 -7 -7 -8 -8 -8 -8 -8 -8 -8 -7 -7 -6 -6 -6 -6 -5 -5 -4 -4 -3 -1 1 2 2 2 2 2
-6 -8 -7 -7 -9 -8 -7 -7 -6 -6 -7 -7 -8 -8 -8 -9 -9 -9 -9 -9 -9 -9 -9 -9 -9 -9 -9 -9 -8 -8 -7 -7 -6 -6 -5 -5 -3 -2 -1 0 1 1 1 2
-8 -6 -3 -1 -3 -6 -7 -7 -8 -9 -8 -8 -9 -9 -9 -9 -10 -10 -11 -11 -11 -10 -10 -10 -10 -10 -10 -10 -9 -8 -8 -8 -7 -7 -6 -5 -4 -3 -2 -1 -1 0 0 1